Regional Weather Roundup
Issued by NWS

Home | Current Version | Previous Version | Graphics & Text | Print | Product List | Glossary On
Versions: 1 2 3 4 5 6 7 8 9 10 11 12 13 14 15 16 17 18 19 20 21 22 23 24 25 26 27 28 29 30 31 32 33 34 35 36 37 38 39 40 41 42 43 44 45 46 47 48 49 50
000
ASUS43 KLOT 250206
RWRIL

ILLINOIS REGIONAL WEATHER ROUNDUP
NATIONAL WEATHER SERVICE CHICAGO/ROMEOVILLE IL
900 PM CDT THU JUL 24 2014

NOTE: "FAIR" INDICATES FEW OR NO CLOUDS BELOW 12,000 FEET WITH NO
SIGNIFICANT WEATHER AND/OR OBSTRUCTIONS TO VISIBILITY.

* THESE STATIONS ARE NOT UNDER NWS QUALITY CONTROL. THEY ALSO MAY NOT
  REPORT WEATHER SUCH AS PRECIPITATION OR FOG.

ILZ001-002-007-009-015-016-024-250300-
NORTHWEST ILLINOIS

CITY           SKY/WX    TMP DP  RH WIND       PRES   REMARKS
MOLINE         CLOUDY    69  59  70 S7        30.03F
STERLING*      CLOUDY    68  55  64 S5        30.05F
SAVANNA*       CLOUDY    69  58  69 SE6       30.01F
$$

ILZ003-004-008-010-011-017-018-250300-
NORTH CENTRAL ILLINOIS

CITY           SKY/WX    TMP DP  RH WIND       PRES   REMARKS
ROCKFORD       CLOUDY    66  57  72 S6        30.06F
FREEPORT*      CLOUDY    62  59  88 S7        30.06F
ROCHELLE*      MOCLDY    63  58  84 CALM      30.05F
DE KALB*       RAIN      62  55  77 S6        30.06F
PERU*          CLOUDY    71  54  55 CALM      30.07S
$$

ILZ005-006-012>014-019>023-250300-
NORTHEAST ILLINOIS

CITY           SKY/WX    TMP DP  RH WIND       PRES   REMARKS
CHICAGO-OHARE  MOCLDY    67  42  40 E8        30.06F
CHICAGO-MIDWAY CLOUDY    68  49  50 E7        30.08F
AURORA         MOCLDY    64  52  64 SE6       30.07F
LANSING*       PTCLDY    62  49  61 CALM      30.10F
JOLIET*        MOCLDY    64  46  53 E5        30.09S
WAUKEGAN       MOCLDY    60  50  69 SE5       30.06F
DUPAGE AIRPORT PTCLDY    66  47  50 E7        30.06F
KANKAKEE*      MOCLDY    61  55  78 NE5       30.08F
WHEELING       MOCLDY    66  44  45 SE6       30.08F
MORRIS*        MOCLDY    64  55  70 E5        30.07S
ROMEOVILLE*    MOCLDY    64  46  53 E5        30.07F
$$

LMZ740>746-250300-
SOUTHERN LAKE MICHIGAN

STATION/POSITION SKY/WX   TEMP    WIND        PRES    VSBY  WAVE
                          AIR SEA DIR/SP/G                  HT/PER
                          (F)     (DEG/KT/KT) (MB)    (MI)  (FT/S)
SOUTHERN BUOY              61 62  190/  2/  2 1018.7F         0
WAUKEGAN HARBOR            64     160/  6/  6   N/A
HARRISON CRIB              64     120/  4/  5   N/A
CALUMET HARBOR             65      90/  4/  5 1017.7F
MICHIGAN CITY              65     360/  6/  7   N/A
MICHIGAN CITY 6N           65 69   20/  4/  6   N/A           1/ 2
ST. JOSEPH                 57 51  230/  2/  2   N/A           1/ 3
$$

ILZ025>027-034>036-040-047-049-050-058-095>099-250300-
WEST-CENTRAL ILLINOIS

CITY           SKY/WX    TMP DP  RH WIND       PRES   REMARKS
QUINCY         MOCLDY    70  59  68 CALM      30.08R
GALESBURG*     CLOUDY    67  60  76 CALM      30.07F
MACOMB*        MOCLDY    64  62  94 CALM      30.09S
JACKSONVILLE*  MOCLDY    66  58  77 CALM      30.08R
PITTSFIELD*    MOCLDY    68  59  73 W3        30.10R
$$

ILZ028>032-037-038-041>044-048-051>054-059>061-250300-
CENTRAL ILLINOIS

CITY           SKY/WX    TMP DP  RH WIND       PRES   REMARKS
PONTIAC        CLOUDY    64  61  88 E3        30.07S
DECATUR        MOCLDY    67  59  75 NE6       30.07F
PEORIA         CLOUDY    71  56  58 CALM      30.08R
LACON*         CLOUDY    66  56  70 CALM      30.07R
LINCOLN*       CLOUDY    67  60  76 CALM      30.05R
SPRINGFIELD    CLOUDY    70  57  63 E3        30.06F
TAYLORVILLE    MOCLDY    66  55  68 CALM      30.06F
$$

ILZ033-039-045-046-055>057-062-063-250300-
EAST-CENTRAL ILLINOIS

CITY           SKY/WX    TMP DP  RH WIND       PRES   REMARKS
CHAMPAIGN      PTCLDY    65  56  72 E6        30.07F
DANVILLE*      PTCLDY    61  57  87 CALM      30.06S
RANTOUL*       MOCLDY    67  56  67 E3        30.08F
MATTOON        PTCLDY    66  57  72 NW3       30.08R
PARIS*         CLEAR     64  60  88 CALM      30.09R
$$

ILZ079-100>102-250300-
SOUTHWEST ILLINOIS

CITY           SKY/WX    TMP DP  RH WIND       PRES   REMARKS
BELLEVILLE     CLEAR     68  61  76 CALM      30.04F
CAHOKIA*       CLEAR     68  56  65 E5        30.04F
SPARTA*        CLEAR     64  55  72 CALM      30.06F
$$

ILZ064>066-069>071-074>076-080>082-084>086-088>090-092>094-250300-
SOUTH-CENTRAL ILLINOIS

CITY           SKY/WX    TMP DP  RH WIND       PRES   REMARKS
CARBONDALE     PTCLDY    67  60  78 CALM      30.06R
CAIRO*         CLEAR     68  61  79 NW5       30.05R
EFFINGHAM*     PTCLDY    65  56  74 CALM      30.08S
MARION         CLEAR     66  61  82 CALM      30.06S
MT. VERNON     CLEAR     64  57  77 CALM      30.08R
CENTRALIA*     CLEAR     64  58  81 CALM      30.07S
SALEM*         CLEAR     67  61  80 CALM      30.08S
METROPOLIS*    CLEAR     66  59  78 CALM      30.04R
$$

ILZ067-068-072-073-078-083-087-091-250300-
SOUTHEAST ILLINOIS

CITY           SKY/WX    TMP DP  RH WIND       PRES   REMARKS
LAWRENCEVILLE  CLEAR     67  62  84 N5        30.07R
FLORA*         CLEAR     69  57  66 N5        30.08R
FAIRFIELD*     CLEAR     66  63  88 CALM      30.07R
HARRISBURG*    CLEAR     67  63  87 N3        30.07R
ROBINSON*      CLEAR     64  61  90 CALM      30.08R
CARMI*         CLEAR     66  64  94 NW5       30.05R
$$

ABBREVIATIONS USED IN REMARKS
   TC - TEMPERATURE IN CELSIUS
  WCI - WIND CHILL INDEX
   HX - HEAT INDEX
  VSB - VISIBILITY
$$



USA.gov is the U.S. government's official web portal to all federal, state and local government web resources and services.